Philadelphia, PA

5:55 AM EST on December 13, 2019 (GMT -0500)
Philadelphia International

Weather History for KPHL - November, 2019

Change the Weather History Date:

Monday, November 11, 2019

  Actual Average Record
Temperature  
Mean Temperature 52 °F 49 °F  
Max Temperature 66 °F 58 °F 74 °F (1949)
Min Temperature 39 °F 41 °F 21 °F (1961)
Degree Days  
Heating Degree Days 12 16  
Month to date heating degree days 207 157  
Since 1 July heating degree days 359 450  
Cooling Degree Days 0 0  
Month to date cooling degree days 0 0  
Year to date cooling degree days 1610 1300  
Growing Degree Days 2 (Base 50)    
Moisture  
Dew Point 40 °F    
Average Humidity 67    
Maximum Humidity 93    
Minimum Humidity 40    
Precipitation  
Precipitation 0.00 in 0.09 in 1.03 in (1970)
Month to date precipitation 0.14 1.04  
Year to date precipitation 41.20 36.02  
Snow  
Snow 0.00 in 0.00 in 1.30 in (1987)
Month to date snowfall 0.0 0.0  
Since 1 July snowfall 0.0 0.0  
Since 1 September snowfall 0.0 0.0  
Snow Depth 0.00 in    
Sea Level Pressure  
Sea Level Pressure 30.00 in    
Wind  
Wind Speed 3 mph ()    
Max Wind Speed 12 mph    
Max Gust Speed 19 mph    
Visibility 9.8 miles    
Events      
T = Trace of Precipitation, MM = Missing Value Source: Averaged Metar Reports

Daily Weather History Graph

Daily Weather History Graph

Search for Another Location

Airport or City:

Astronomy

Nov. 11, 2019 Rise Set
Actual Time 6:40 AM EST 4:48 PM EST
Civil Twilight 6:12 AM EST 5:17 PM EST
Nautical Twilight 5:39 AM EST 5:49 PM EST
Astronomical Twilight 5:08 AM EST 6:21 PM EST
Moon 4:42 PM EST (11/11) 5:29 AM EST (11/11)
Length of Visible Light 11h 04m
Length of Day
10h 07m
Waxing Gibbous, 99% of the Moon is Illuminated
Nov 11
Waxing Gibbous
Nov 12
Full
Nov 19
Last Quarter
Nov 26
New
Dec 4
First Quarter

Hourly Weather History & Observations

Time (EST) Temp. Windchill Dew Point Humidity Pressure Visibility Wind Dir Wind Speed Gust Speed Precip Events Conditions
12:54 AM 46.0 °F - 37.0 °F 71% 30.07 in 10.0 mi Calm Calm - N/A   Overcast
1:54 AM 44.1 °F 42.5 °F 37.9 °F 79% 30.06 in 10.0 mi East 3.5 mph - N/A   Mostly Cloudy
2:54 AM 42.1 °F - 37.0 °F 82% 30.06 in 10.0 mi Calm Calm - N/A   Partly Cloudy
3:54 AM 39.9 °F 37.8 °F 35.1 °F 83% 30.06 in 10.0 mi ESE 3.5 mph - N/A   Scattered Clouds
4:54 AM 41.0 °F - 37.9 °F 89% 30.07 in 10.0 mi Calm Calm - N/A   Mostly Cloudy
5:54 AM 39.0 °F - 37.0 °F 93% 30.08 in 10.0 mi Calm Calm - N/A   Overcast
6:36 AM 41.0 °F - 37.0 °F 86% 30.08 in 8.0 mi Calm Calm - N/A   Overcast
6:54 AM 41.0 °F - 37.9 °F 89% 30.09 in 7.0 mi Calm Calm - N/A   Mostly Cloudy
7:54 AM 45.0 °F - 39.9 °F 82% 30.10 in 9.0 mi Calm Calm - N/A   Mostly Cloudy
8:17 AM 45.0 °F 43.5 °F 41.0 °F 86% 30.10 in 10.0 mi WSW 3.5 mph - N/A   Mostly Cloudy
8:54 AM 48.0 °F - 41.0 °F 77% 30.10 in 10.0 mi SSW 4.6 mph - N/A   Mostly Cloudy
9:54 AM 51.1 °F - 42.1 °F 71% 30.09 in 10.0 mi WSW 4.6 mph - N/A   Mostly Cloudy
10:54 AM 55.9 °F - 42.1 °F 60% 30.08 in 10.0 mi WSW 3.5 mph - N/A   Mostly Cloudy
11:54 AM 59.0 °F - 42.1 °F 53% 30.06 in 10.0 mi West 4.6 mph - N/A   Mostly Cloudy
12:54 PM 62.1 °F - 41.0 °F 46% 30.03 in 10.0 mi Variable 3.5 mph - N/A   Mostly Cloudy
1:54 PM 64.0 °F - 39.9 °F 41% 30.00 in 10.0 mi SSE 3.5 mph - N/A   Mostly Cloudy
2:54 PM 64.9 °F - 39.9 °F 40% 29.98 in 10.0 mi South 4.6 mph - N/A   Mostly Cloudy
3:54 PM 64.9 °F - 39.9 °F 40% 29.96 in 10.0 mi SSE 8.1 mph - N/A   Mostly Cloudy
4:54 PM 61.0 °F - 39.9 °F 46% 29.94 in 10.0 mi SSE 3.5 mph - N/A   Mostly Cloudy
5:54 PM 60.1 °F - 39.9 °F 47% 29.91 in 10.0 mi SSE 8.1 mph - N/A   Mostly Cloudy
6:54 PM 57.0 °F - 39.9 °F 53% 29.88 in 10.0 mi SSE 6.9 mph - N/A   Mostly Cloudy
7:54 PM 55.9 °F - 43.0 °F 62% 29.89 in 10.0 mi SSW 9.2 mph - N/A   Mostly Cloudy
8:54 PM 55.0 °F - 44.1 °F 67% 29.88 in 10.0 mi SSW 6.9 mph - N/A   Mostly Cloudy
9:54 PM 54.0 °F - 45.0 °F 72% 29.86 in 10.0 mi SSW 4.6 mph - N/A   Mostly Cloudy
10:54 PM 55.0 °F - 44.1 °F 67% 29.83 in 10.0 mi South 6.9 mph - N/A   Overcast
11:54 PM 55.0 °F - 43.0 °F 64% 29.80 in 10.0 mi South 5.8 mph - N/A   Overcast